COSMOS 2428

Last updated on Sun Dec 14 2025 00:02:16 GMT+0000 (Coordinated Universal Time)

1 31792U 07029A 25347.30475207 .00000134 00000+0 97858-4 0 9997 2 31792 70.9368 24.6938 0003697 22.6373 337.4911 14.12890012951895
UTC large
Height (km)
Speed (km/s)
/
Latitude / Longitude
Inclination (degrees)
Orbital Period (minutes)
Azimuth
Elevation
Range (km)
Doppler Factor

Next 0 passes for location: London (51.5072 / 0.1276)

Sorry there are no passes over London.